TimeCDT,TemperatureF,Dew PointF,Humidity,Sea Level PressureIn,VisibilityMPH,Wind Direction,Wind SpeedMPH,Gust SpeedMPH,PrecipitationIn,Events,Conditions,WindDirDegrees,DateUTC
12:53 AM,46.0,39.0,76,29.86,10.0,West,10.4,17.3,N/A,,Overcast,270,2013-03-11 05:53:00
1:53 AM,44.1,37.9,79,29.86,10.0,Variable,6.9,-,N/A,,Mostly Cloudy,0,2013-03-11 06:53:00
2:53 AM,43.0,37.9,82,29.87,10.0,WSW,6.9,-,N/A,,Overcast,250,2013-03-11 07:53:00
3:53 AM,43.0,37.0,80,29.87,10.0,West,4.6,-,N/A,,Overcast,260,2013-03-11 08:53:00
4:53 AM,42.1,36.0,79,29.86,10.0,West,5.8,-,N/A,,Clear,270,2013-03-11 09:53:00
5:53 AM,39.9,32.0,73,29.87,10.0,WNW,10.4,18.4,N/A,,Mostly Cloudy,290,2013-03-11 10:53:00
6:21 AM,39.2,33.8,81,29.90,10.0,West,6.9,-,N/A,,Mostly Cloudy,280,2013-03-11 11:21:00
6:51 AM,39.2,30.2,70,29.90,10.0,West,6.9,18.4,N/A,,Overcast,270,2013-03-11 11:51:00
6:53 AM,39.0,30.9,73,29.91,10.0,West,6.9,-,N/A,,Overcast,260,2013-03-11 11:53:00
7:53 AM,37.9,30.9,76,29.89,10.0,West,8.1,-,N/A,,Overcast,280,2013-03-11 12:53:00
8:13 AM,37.4,30.2,75,29.92,10.0,West,8.1,16.1,N/A,,Overcast,280,2013-03-11 13:13:00
8:53 AM,37.9,30.9,76,29.93,10.0,West,8.1,-,N/A,,Overcast,270,2013-03-11 13:53:00
9:53 AM,39.0,32.0,76,29.93,10.0,West,8.1,17.3,N/A,,Overcast,270,2013-03-11 14:53:00
10:53 AM,37.9,32.0,79,29.95,10.0,West,6.9,-,N/A,,Overcast,270,2013-03-11 15:53:00
11:53 AM,39.0,30.9,73,29.96,10.0,West,9.2,-,N/A,,Overcast,260,2013-03-11 16:53:00
12:33 PM,41.0,30.2,65,29.95,10.0,West,6.9,-,N/A,,Overcast,270,2013-03-11 17:33:00
12:53 PM,41.0,30.9,67,29.96,10.0,West,8.1,-,N/A,,Overcast,260,2013-03-11 17:53:00
1:03 PM,41.0,30.2,65,29.95,10.0,West,8.1,-,N/A,,Overcast,270,2013-03-11 18:03:00
1:39 PM,42.8,32.0,66,29.94,10.0,Variable,5.8,-,N/A,,Overcast,0,2013-03-11 18:39:00
1:53 PM,42.1,32.0,67,29.94,10.0,West,8.1,-,N/A,,Overcast,280,2013-03-11 18:53:00
2:53 PM,44.1,30.9,60,29.93,10.0,WNW,6.9,-,N/A,,Mostly Cloudy,300,2013-03-11 19:53:00
3:53 PM,45.0,30.9,58,29.93,10.0,West,5.8,-,N/A,,Overcast,270,2013-03-11 20:53:00
4:53 PM,45.0,30.9,58,29.94,10.0,West,3.5,-,N/A,,Overcast,260,2013-03-11 21:53:00
6:53 PM,44.1,32.0,63,29.96,10.0,WSW,3.5,-,N/A,,Overcast,250,2013-03-11 23:53:00
7:53 PM,43.0,36.0,76,29.98,10.0,Calm,Calm,-,N/A,,Overcast,0,2013-03-12 00:53:00
8:53 PM,42.1,36.0,79,30.01,10.0,Calm,Calm,-,N/A,,Mostly Cloudy,0,2013-03-12 01:53:00
9:53 PM,39.0,34.0,82,30.02,10.0,Calm,Calm,-,N/A,,Clear,0,2013-03-12 02:53:00
10:53 PM,37.9,32.0,79,30.05,10.0,NNE,4.6,-,N/A,,Clear,30,2013-03-12 03:53:00
11:53 PM,37.9,32.0,79,30.05,10.0,Calm,Calm,-,N/A,,Clear,0,2013-03-12 04:53:00